Location: Winthrop
(48.4780°N, 120.1850°W)
Time: 18:30:33
(UTC-07:00)

CAS-4B - Pass Details

Date: 31 May 2022
Orbit: 523 x 537 km, 43.0° (Epoch: 29 June)

Event Time Altitude Azimuth Distance (km) Brightness Sun altitude
Rises 21:40:49 0° 265° (W) 2,659 ? -6.8°
Reaches altitude 10° 21:44:51 10° 226° (SW) 1,761 ? -7.3°
Maximum altitude 21:45:41 11° 214° (SSW) 1,725 ? -7.4°
Drops below altitude 10° 21:46:31 10° 201° (SSW) 1,758 ? -7.5°
Enters shadow 21:48:57 - 173° (S) 2,190 ? -7.7°
